Terug naar catalogus

COSMOS 2529

GLONASS

ActiefNavigatieMEO
NORAD 43687·PAYLOAD·🇷🇺 Russia

Gelanceerd Nov 3, 2018 vanaf Plesetsk Cosmodrome

Loading…

Volgende Passages (komende 24 uur)

TLE

VersSource: CelesTrak SupGP

Epoch: Sep 13, 2026, 23:59 UTC

1 43687C 18086A   26256.99979167  .00000000  00000+0  00000+0 0  2563
2 43687  64.2959 189.5981 0010199 254.5116 204.0965  2.13102042    12

Volg COSMOS 2529 in realtime met AllMySat

Download on the App Store